Weather History for KRSN - May, 2013

Change the Weather History Date:

Monday, May 6, 2013

  Actual Average Record
Temperature  
Mean Temperature 62 °F -  
Max Temperature 76 °F 80 °F 91 °F (1952)
Min Temperature 48 °F 56 °F 46 °F (1957)
Degree Days  
Heating Degree Days 4    
Growing Degree Days 12 (Base 50)    
Moisture  
Dew Point 49 °F    
Average Humidity 68    
Maximum Humidity 100    
Minimum Humidity 38    
Precipitation  
Precipitation 0.00 in - - ()
Sea Level Pressure  
Sea Level Pressure 30.03 in    
Wind  
Wind Speed 4 mph (NW)    
Max Wind Speed 10 mph    
Max Gust Speed 20 mph    
Visibility 10 miles    
Events      
Averages and records for this station are not official NWS values.
T = Trace of Precipitation, MM = Missing Value Source: NWS Daily Summary

Daily Weather History Graph

Daily Weather History Graph

Search for Another Location

Airport or City:

Trip Planner

Search our weather history database for the weather conditions in past years. The results will help you decide how hot, cold, wet, or windy it might be!

Date:

Astronomy

May. 06, 2013 Rise Set
Actual Time 6:18 AM CDT 7:55 PM CDT
Civil Twilight 5:52 AM CDT 8:22 PM CDT
Nautical Twilight 5:20 AM CDT 8:53 PM CDT
Astronomical Twilight 4:47 AM CDT 9:27 PM CDT
Moon 4:10 AM CDT (5/6) 5:04 PM CDT (5/6)
Length of Visible Light 14h 29m
Length of Day
13h 36m
Waning Crescent, 11% of the Moon is Illuminated
May 6
Waning Crescent
May 9
New
May 17
First Quarter
May 24
Full
May 31
Last Quarter

Hourly Weather History & Observations

Time (CDT) Temp. Dew Point Humidity Pressure Visibility Wind Dir Wind Speed Gust Speed Precip Events Conditions
12:15 AM 51.1 °F 42.3 °F 72% 30.04 in 10.0 mi WSW 4.6 mph - N/A   Clear
12:35 AM 51.3 °F 42.8 °F 73% 30.05 in 10.0 mi West 3.5 mph - N/A   Clear
12:55 AM 52.9 °F 42.8 °F 69% 30.04 in 10.0 mi WNW 4.6 mph - N/A   Clear
1:15 AM 52.9 °F 43.2 °F 70% 30.04 in 10.0 mi NW 4.6 mph - N/A   Clear
1:35 AM 52.5 °F 43.7 °F 72% 30.04 in 10.0 mi WNW 5.8 mph - N/A   Clear
1:55 AM 52.0 °F 43.9 °F 74% 30.03 in 10.0 mi WNW 3.5 mph - N/A   Clear
2:15 AM 51.8 °F 44.1 °F 75% 30.03 in 10.0 mi NW 4.6 mph - N/A   Clear
2:35 AM 50.9 °F 44.2 °F 78% 30.03 in 10.0 mi NNW 3.5 mph - N/A   Clear
2:55 AM 50.5 °F 44.6 °F 80% 30.03 in 10.0 mi NW 3.5 mph - N/A   Clear
3:15 AM 50.2 °F 44.8 °F 82% 30.03 in 10.0 mi Calm Calm - N/A   Clear
3:35 AM 49.6 °F 45.3 °F 85% 30.02 in 10.0 mi Calm Calm - N/A   Clear
3:55 AM 50.2 °F 45.3 °F 83% 30.03 in 10.0 mi WNW 3.5 mph - N/A   Clear
4:15 AM 49.8 °F 45.3 °F 84% 30.03 in 10.0 mi NW 3.5 mph - N/A   Clear
4:35 AM 49.3 °F 45.5 °F 87% 30.03 in 10.0 mi WNW 3.5 mph - N/A   Clear
4:55 AM 49.3 °F 45.5 °F 87% 30.03 in 10.0 mi Calm Calm - N/A   Clear
5:15 AM 48.7 °F 45.7 °F 89% 30.03 in 10.0 mi Calm Calm - N/A   Clear
5:35 AM 48.2 °F 45.7 °F 91% 30.03 in 10.0 mi Calm Calm - N/A   Clear
5:55 AM 48.6 °F 45.7 °F 90% 30.03 in 10.0 mi Calm Calm - N/A   Clear
6:15 AM 48.4 °F 45.7 °F 90% 30.04 in 10.0 mi Calm Calm - N/A   Clear
6:35 AM 48.2 °F 45.9 °F 92% 30.05 in 10.0 mi Calm Calm - N/A   Clear
6:55 AM 48.2 °F 46.0 °F 92% 30.05 in 10.0 mi West 3.5 mph - N/A   Clear
7:15 AM 48.6 °F 46.4 °F 92% 30.06 in 10.0 mi Calm Calm - N/A   Clear
7:35 AM 50.9 °F 46.6 °F 85% 30.07 in 10.0 mi WNW 5.8 mph - N/A   Clear
7:55 AM 52.7 °F 46.8 °F 80% 30.07 in 10.0 mi NW 3.5 mph - N/A   Clear
8:35 AM 55.8 °F 47.5 °F 74% 30.07 in 10.0 mi WNW 4.6 mph - N/A   Clear
8:55 AM 57.4 °F 48.2 °F 71% 30.08 in 10.0 mi WNW 3.5 mph - N/A   Clear
9:15 AM 58.3 °F 48.0 °F 69% 30.08 in 10.0 mi WNW 5.8 mph - N/A   Clear
9:35 AM 59.4 °F 48.0 °F 66% 30.08 in 10.0 mi WNW 8.1 mph - N/A   Clear
9:55 AM 60.4 °F 48.6 °F 65% 30.08 in 10.0 mi West 3.5 mph - N/A   Clear
10:15 AM 61.7 °F 49.3 °F 64% 30.08 in 10.0 mi North 5.8 mph - N/A   Clear
10:35 AM 63.5 °F 49.6 °F 61% 30.08 in 10.0 mi NNW 5.8 mph - N/A   Clear
10:55 AM 64.2 °F 50.0 °F 60% 30.08 in 10.0 mi NNW 5.8 mph - N/A   Clear
11:15 AM 65.1 °F 49.8 °F 58% 30.07 in 10.0 mi WNW 5.8 mph - N/A   Clear
11:35 AM 65.7 °F 48.9 °F 55% 30.07 in 10.0 mi NNW 9.2 mph - N/A   Clear
11:55 AM 67.1 °F 50.4 °F 55% 30.06 in 10.0 mi NW 5.8 mph - N/A   Clear
12:15 PM 67.6 °F 50.2 °F 54% 30.06 in 10.0 mi WNW 6.9 mph - N/A   Clear
12:35 PM 68.4 °F 50.0 °F 52% 30.05 in 10.0 mi NW 4.6 mph - N/A   Clear
12:55 PM 69.3 °F 50.0 °F 50% 30.04 in 10.0 mi WNW 9.2 mph 16.1 mph N/A   Clear
1:15 PM 70.0 °F 49.5 °F 48% 30.03 in 10.0 mi West 9.2 mph - N/A   Clear
1:35 PM 71.1 °F 50.4 °F 48% 30.03 in 10.0 mi West 6.9 mph - N/A   Clear
1:55 PM 71.6 °F 49.8 °F 46% 30.02 in 10.0 mi NW 9.2 mph 16.1 mph N/A   Scattered Clouds
2:15 PM 73.2 °F 50.2 °F 44% 30.02 in 10.0 mi NNW 8.1 mph - N/A   Scattered Clouds
2:55 PM 74.7 °F 50.9 °F 43% 30.01 in 10.0 mi WNW 10.4 mph 16.1 mph N/A   Mostly Cloudy
3:15 PM 74.3 °F 49.3 °F 41% 30.00 in 10.0 mi WNW 5.8 mph 19.6 mph N/A   Mostly Cloudy
3:35 PM 73.9 °F 49.5 °F 42% 29.99 in 10.0 mi NW 4.6 mph - N/A   Mostly Cloudy
3:55 PM 74.1 °F 47.5 °F 39% 29.99 in 10.0 mi WNW 6.9 mph - N/A   Mostly Cloudy
4:15 PM 73.4 °F 49.1 °F 42% 29.98 in 10.0 mi NW 8.1 mph - N/A   Mostly Cloudy
4:35 PM 73.6 °F 49.6 °F 43% 29.98 in 10.0 mi NNW 4.6 mph - N/A   Mostly Cloudy
4:55 PM 74.8 °F 48.4 °F 39% 29.98 in 10.0 mi WNW 8.1 mph - N/A   Mostly Cloudy
5:15 PM 73.9 °F 49.5 °F 42% 29.98 in 10.0 mi NW 5.8 mph - N/A   Mostly Cloudy
5:35 PM 74.3 °F 49.1 °F 41% 29.98 in 10.0 mi NW 4.6 mph - N/A   Overcast
5:55 PM 75.2 °F 48.0 °F 38% 29.98 in 10.0 mi NW 8.1 mph - N/A   Scattered Clouds
6:15 PM 74.8 °F 48.4 °F 39% 29.98 in 10.0 mi NNW 5.8 mph - N/A   Scattered Clouds
6:35 PM 73.9 °F 48.9 °F 41% 29.97 in 10.0 mi North 3.5 mph - N/A   Clear
6:55 PM 73.4 °F 49.3 °F 42% 29.97 in 10.0 mi NNW 3.5 mph - N/A   Scattered Clouds
7:15 PM 73.4 °F 48.9 °F 42% 29.98 in 10.0 mi NW 3.5 mph - N/A   Mostly Cloudy
7:35 PM 70.3 °F 54.7 °F 58% 29.99 in 10.0 mi Calm Calm - N/A   Overcast
7:55 PM 67.5 °F 57.0 °F 69% 30.00 in 10.0 mi Calm Calm - N/A   Overcast
8:15 PM 66.9 °F 57.9 °F 73% 30.00 in 10.0 mi Calm Calm - N/A   Overcast
8:35 PM 64.6 °F 58.5 °F 80% 30.01 in 10.0 mi Calm Calm - N/A   Mostly Cloudy
8:55 PM 63.5 °F 58.5 °F 84% 30.02 in 10.0 mi Calm Calm - N/A   Mostly Cloudy
9:15 PM 63.5 °F 58.1 °F 83% 30.03 in 10.0 mi Calm Calm - N/A   Overcast
9:35 PM 62.6 °F 59.2 °F 89% 30.03 in 10.0 mi Calm Calm - N/A   Scattered Clouds
9:55 PM 61.2 °F 60.3 °F 97% 30.04 in 10.0 mi Calm Calm - N/A   Scattered Clouds
10:15 PM 63.9 °F 57.2 °F 79% 30.05 in 10.0 mi Calm Calm - N/A   Scattered Clouds
10:35 PM 63.0 °F 57.2 °F 81% 30.05 in 10.0 mi Calm Calm - N/A   Mostly Cloudy
10:55 PM 62.6 °F 57.4 °F 83% 30.05 in 10.0 mi Calm Calm - N/A   Mostly Cloudy
11:15 PM 59.4 °F 59.2 °F 99% 30.05 in 10.0 mi Calm Calm - N/A   Scattered Clouds
11:35 PM 59.0 °F 59.0 °F 100% 30.04 in 10.0 mi Calm Calm - N/A   Clear
11:55 PM 58.1 °F 58.1 °F 100% 30.04 in 10.0 mi Calm Calm - N/A   Clear